GW3251 Weather Reports


Display with metric or nautical units.
time (UTC)temp
F
wind
direction
speed
MPH
gust
MPH
rain 1hr
in
rain 24hr
in
rain mn
in
humidity
%
barometer
mb
20260502191037 75 0 0.0 13.0 0.00 0.47 0.00 58 1020.6
20260502190537 75 0 1.0 13.0 0.00 0.47 0.00 53 1020.6
20260502190050 75 0 3.0 13.0 0.00 0.47 0.00 54 1020.7
20260502185538 74 23 0.0 9.0 0.00 0.48 0.00 57 1020.7
20260502185038 74 0 0.0 13.0 0.00 0.48 0.00 58 1020.8
20260502184547 74 48 2.0 13.0 0.00 0.48 0.00 57 1020.9
20260502184037 74 17 2.0 13.0 0.00 0.48 0.00 57 1021.0
20260502183538 74 33 1.0 12.0 0.00 0.48 0.00 58 1021.1
20260502183047 74 0 0.0 12.0 0.00 0.48 0.00 56 1021.2
20260502182538 74 351 2.0 12.0 0.00 0.48 0.00 57 1021.1
20260502182038 73 0 0.0 9.0 0.00 0.48 0.00 59 1021.3
20260502181544 72 15 0.0 13.0 0.00 0.48 0.00 64 1021.4
20260502181038 73 0 2.0 13.0 0.00 0.48 0.00 58 1021.5
20260502180538 73 0 0.0 13.0 0.00 0.48 0.00 61 1021.7
20260502164040 70 28 4.0 12.0 0.00 0.52 0.00 61 1022.2
20260502163536 71 29 2.0 11.0 0.00 0.52 0.00 64 1022.1
20260502163044 70 0 2.0 11.0 0.00 0.52 0.00 67 1022.1
20260502162538 70 0 0.0 9.0 0.00 0.52 0.00 62 1022.0
20260502162038 70 0 1.0 14.0 0.00 0.52 0.00 66 1021.9
20260502161553 69 21 4.0 14.0 0.00 0.52 0.00 70 1022.0
20260502161036 69 39 3.0 13.0 0.00 0.52 0.00 66 1022.0
20260502160537 69 5 2.0 12.0 0.00 0.52 0.00 69 1022.1
20260502152036 65 337 2.0 13.0 0.00 0.61 0.00 73 1021.9
20260502151556 65 0 3.0 11.0 0.00 0.61 0.00 75 1021.8
20260502151036 65 5 3.0 10.0 0.00 0.61 0.00 75 1021.7
20260502150537 65 0 2.0 10.0 0.00 0.61 0.00 76 1021.7
20260502130538 53 0 0.0 3.0 0.00 0.70 0.00 95 1020.8
20260502123538 51 0 0.0 1.0 0.00 0.85 0.00 94 1020.4
20260502123048 50 0 0.0 0.0 0.00 0.85 0.00 95 1020.2
20260502122537 50 0 0.0 2.0 0.00 0.85 0.00 94 1019.9
20260502122037 50 0 0.0 2.0 0.00 0.85 0.00 94 1019.8
20260502121550 49 0 0.0 0.0 0.00 0.85 0.00 94 1019.8
20260502121038 49 0 0.0 0.0 0.00 0.85 0.00 94 1019.6
20260502120536 49 0 0.0 0.0 0.00 0.85 0.00 94 1019.6
20260502120107 49 0 0.0 0.0 0.00 0.85 0.00 94 1019.6
20260502115537 49 0 0.0 0.0 0.00 1.04 0.00 94 1019.5
20260502115039 49 0 0.0 0.0 0.00 1.04 0.00 94 1019.7
20260502114546 49 0 0.0 0.0 0.00 1.04 0.00 94 1019.5
20260502114037 49 0 0.0 0.0 0.00 1.04 0.00 94 1019.5
20260502113537 49 0 0.0 0.0 0.00 1.04 0.00 94 1019.3
20260502113050 49 0 0.0 0.0 0.00 1.04 0.00 94 1019.4
20260502112536 49 0 0.0 0.0 0.00 1.04 0.00 94 1019.3
20260502112039 49 0 0.0 0.0 0.00 1.04 0.00 94 1019.3
20260502111551 49 0 0.0 0.0 0.00 1.04 0.00 94 1019.1
20260502111037 49 0 0.0 0.0 0.00 1.04 0.00 94 1019.1
20260502110536 50 0 0.0 0.0 0.00 1.04 0.00 94 1018.9
20260502110047 50 0 0.0 0.0 0.00 1.04 0.00 94 1018.9
20260502105537 50 0 0.0 0.0 0.00 1.14 0.00 94 1018.9
20260502105037 50 0 0.0 0.0 0.00 1.14 0.00 94 1018.7
20260502104552 50 0 0.0 0.0 0.00 1.14 0.00 94 1018.8
20260502104037 50 0 0.0 0.0 0.00 1.14 0.00 94 1018.7
20260502103537 50 0 0.0 0.0 0.00 1.14 0.00 94 1018.6
20260502103046 50 0 0.0 0.0 0.00 1.14 0.00 94 1018.5
20260502102538 50 0 0.0 3.0 0.00 1.14 0.00 94 1018.3
20260502102037 50 0 0.0 3.0 0.00 1.14 0.00 94 1018.2
20260502101550 50 0 0.0 3.0 0.00 1.14 0.00 94 1018.3
20260502101038 50 0 0.0 3.0 0.00 1.14 0.00 94 1018.3
20260502100536 50 0 0.0 5.0 0.00 1.14 0.00 94 1018.3
20260502100112 50 0 0.0 5.0 0.00 1.14 0.00 94 1018.3
20260502091036 50 0 0.0 0.0 0.00 1.24 0.00 94 1018.1
20260502090536 50 0 0.0 4.0 0.00 1.24 0.00 94 1017.8
20260502071037 51 0 0.0 0.0 0.00 1.43 0.00 93 1017.5
20260502070537 51 0 0.0 0.0 0.00 1.43 0.00 93 1017.4
20260502070046 52 0 0.0 0.0 0.00 1.43 0.00 93 1017.5
20260502065537 52 0 0.0 0.0 0.00 1.43 0.00 92 1017.5
20260502065037 52 0 0.0 1.0 0.00 1.43 0.00 92 1017.6
20260502064549 52 0 0.0 3.0 0.00 1.43 0.00 92 1017.5
20260502064037 52 0 0.0 6.0 0.00 1.43 0.00 92 1017.5
20260502063537 53 0 0.0 8.0 0.00 1.43 0.00 92 1017.5
20260502063058 53 0 0.0 8.0 0.00 1.43 0.00 92 1017.4
20260502062540 53 0 0.0 7.0 0.00 1.43 0.00 92 1017.2
20260502062036 53 0 0.0 7.0 0.00 1.43 0.00 93 1017.3
20260502061548 53 0 0.0 5.0 0.00 1.43 0.00 92 1017.2
20260502061037 53 0 0.0 0.0 0.00 1.43 0.00 92 1017.3
20260502060536 53 0 0.0 0.0 0.00 1.43 0.00 92 1017.4
20260502060046 53 0 0.0 4.0 0.00 1.43 0.00 93 1017.5
20260502055537 53 0 0.0 6.0 0.00 1.45 0.00 92 1017.4
20260502055037 53 0 0.0 6.0 0.00 1.45 0.00 93 1017.6
20260502054549 52 0 0.0 6.0 0.00 1.45 0.00 93 1017.5
20260502054039 52 0 0.0 4.0 0.00 1.45 0.00 93 1017.5
20260502053537 53 0 0.0 5.0 0.00 1.45 0.00 93 1017.4
20260502053049 53 0 0.0 5.0 0.00 1.45 0.00 93 1017.3
20260502052537 52 0 0.0 6.0 0.00 1.45 0.00 93 1017.5
20260502052037 52 0 1.0 9.0 0.00 1.45 0.00 93 1017.5
20260502051604 52 0 0.0 9.0 0.00 1.45 0.00 93 1017.5
20260502051038 52 0 0.0 8.0 0.00 1.45 0.00 93 1017.4
20260502050537 52 0 0.0 9.0 0.00 1.45 0.00 93 1017.4
20260502050051 52 44 0.0 9.0 0.00 1.45 0.00 93 1017.3
20260502045539 52 50 1.0 11.0 0.00 1.54 1.45 93 1017.2
20260502045038 52 26 1.0 11.0 0.00 1.54 1.45 93 1017.2
20260502044547 52 63 1.0 11.0 0.00 1.54 1.45 93 1017.2
20260502044036 52 0 0.0 13.0 0.00 1.54 1.45 93 1017.2
20260502043539 52 0 2.0 13.0 0.00 1.54 1.45 93 1017.0
20260502043050 52 52 2.0 13.0 0.00 1.54 1.45 93 1017.2
20260502042537 52 0 1.0 13.0 0.00 1.54 1.45 94 1017.3
20260502042036 51 28 4.0 9.0 0.00 1.54 1.45 93 1017.2
20260502041546 51 11 0.0 12.0 0.00 1.54 1.45 93 1017.2
20260502041037 52 62 2.0 12.0 0.00 1.54 1.45 93 1017.3
20260502040537 52 56 2.0 12.0 0.00 1.54 1.45 93 1017.2
20260502040050 52 0 2.0 10.0 0.00 1.54 1.45 93 1017.2
20260502035540 52 38 2.0 14.0 0.00 1.62 1.45 93 1017.4
20260502035037 52 0 2.0 14.0 0.00 1.62 1.45 93 1017.4
20260502034549 52 0 2.0 12.0 0.00 1.62 1.45 94 1017.4
20260502034037 52 0 2.0 12.0 0.00 1.62 1.45 94 1017.2
20260502033536 52 22 3.0 12.0 0.00 1.62 1.45 94 1017.3
20260502033053 52 0 3.0 13.0 0.00 1.62 1.45 94 1017.3
20260502032537 52 0 5.0 17.0 0.00 1.62 1.45 94 1017.2
20260502032038 52 42 4.0 17.0 0.00 1.62 1.45 94 1017.1
20260502031605 53 0 2.0 13.0 0.00 1.62 1.45 94 1017.0
20260502031038 53 46 3.0 14.0 0.00 1.62 1.45 94 1017.0
20260502030538 53 40 5.0 14.0 0.00 1.62 1.45 94 1016.8
20260502030046 53 0 3.0 10.0 0.00 1.62 1.45 94 1016.7
20260502025537 53 42 1.0 12.0 0.00 1.62 1.45 94 1016.6
20260502025037 53 0 2.0 12.0 0.00 1.62 1.45 94 1016.7
20260502024553 53 69 4.0 16.0 0.00 1.62 1.45 94 1016.6
20260502024037 53 24 3.0 16.0 0.00 1.62 1.45 94 1016.6
20260502023537 53 45 2.0 14.0 0.00 1.62 1.45 94 1016.5
20260502023049 54 17 7.0 14.0 0.00 1.62 1.45 94 1016.3
20260502022537 54 32 1.0 13.0 0.00 1.62 1.45 94 1016.4
20260502022036 54 32 3.0 13.0 0.00 1.62 1.45 94 1016.3
20260502021544 54 17 3.0 11.0 0.00 1.62 1.45 94 1016.2
20260502021037 54 0 0.0 10.0 0.00 1.62 1.45 94 1016.1
20260502020541 54 0 1.0 10.0 0.00 1.62 1.45 94 1015.9
20260502020057 54 78 1.0 13.0 0.00 1.62 1.45 94 1015.6
20260502015538 54 0 3.0 13.0 0.00 1.62 1.45 94 1015.4
20260502015038 54 36 2.0 14.0 0.00 1.62 1.45 94 1015.0
20260502014543 54 63 2.0 17.0 0.00 1.62 1.45 94 1014.8
20260502014037 54 23 3.0 17.0 0.00 1.62 1.45 94 1014.6
20260502013540 54 352 6.0 16.0 0.00 1.62 1.45 94 1014.6
20260502013053 54 0 3.0 16.0 0.00 1.62 1.45 94 1014.7
20260502012542 54 43 3.0 16.0 0.00 1.62 1.45 94 1014.6
20260502012037 54 0 2.0 11.0 0.00 1.62 1.45 94 1014.8
20260502011549 54 44 0.0 14.0 0.00 1.62 1.45 94 1014.8
20260502011036 54 38 3.0 14.0 0.00 1.62 1.45 94 1014.7
20260502010537 54 46 4.0 15.0 0.01 1.62 1.45 94 1014.8
20260502010054 54 38 4.0 15.0 0.01 1.62 1.45 94 1014.8
20260502005537 54 53 3.0 12.0 0.01 1.62 1.45 94 1014.8
20260502005037 55 35 2.0 13.0 0.01 1.62 1.45 94 1014.6
20260502004547 55 51 2.0 13.0 0.01 1.62 1.45 94 1014.7
20260502004037 55 41 2.0 13.0 0.01 1.62 1.45 94 1014.7
20260502003537 55 38 2.0 13.0 0.01 1.62 1.45 94 1014.7
20260502003049 55 75 4.0 13.0 0.02 1.62 1.45 94 1014.9
20260502002537 55 32 1.0 14.0 0.02 1.62 1.45 94 1015.1
20260502002037 55 28 2.0 16.0 0.02 1.62 1.45 94 1014.9
20260502001549 55 19 4.0 16.0 0.02 1.62 1.45 94 1014.5
20260502001038 55 355 2.0 16.0 0.01 1.61 1.44 94 1014.6
20260502000537 55 62 6.0 16.0 0.02 1.61 1.44 94 1014.6
20260502000049 56 45 4.0 13.0 0.03 1.61 1.44 94 1014.8
20260501235538 56 26 2.0 13.0 0.04 1.61 1.44 94 1014.8
20260501235038 56 350 2.0 15.0 0.05 1.61 1.44 94 1014.4
20260501234552 56 0 2.0 15.0 0.05 1.61 1.44 94 1014.6
20260501234037 56 0 2.0 14.0 0.05 1.61 1.44 94 1014.4
20260501233537 56 0 1.0 14.0 0.05 1.61 1.44 94 1014.1
20260501233044 57 9 0.0 9.0 0.05 1.60 1.43 94 1014.1
20260501232537 57 0 0.0 9.0 0.06 1.60 1.43 94 1014.1
20260501232036 57 360 2.0 11.0 0.06 1.60 1.43 94 1014.0
20260501231557 57 11 1.0 14.0 0.08 1.60 1.43 94 1013.8
20260501231037 57 52 3.0 14.0 0.08 1.60 1.43 94 1013.7
20260501230537 57 17 2.0 14.0 0.07 1.59 1.42 94 1013.6
20260501230044 57 0 2.0 16.0 0.06 1.58 1.41 94 1013.4
20260501225537 57 39 6.0 16.0 0.05 1.57 1.40 94 1012.9
20260501225038 57 0 3.0 13.0 0.04 1.56 1.39 94 1012.9
20260501224545 57 0 4.0 13.0 0.04 1.56 1.39 94 1012.8
20260501224037 57 0 3.0 12.0 0.04 1.56 1.39 94 1012.7
20260501223537 57 0 3.0 13.0 0.04 1.56 1.39 94 1012.6
20260501223046 58 0 5.0 17.0 0.03 1.55 1.38 94 1012.2
20260501222538 58 49 5.0 17.0 0.02 1.54 1.37 94 1011.7
20260501222038 58 49 8.0 16.0 0.03 1.54 1.37 94 1011.8
20260501221552 58 40 3.0 16.0 0.02 1.52 1.35 94 1011.8
20260501221038 58 55 6.0 16.0 0.04 1.52 1.35 94 1011.7
20260501220537 58 0 6.0 16.0 0.06 1.52 1.35 94 1012.0
20260501220050 58 23 3.0 17.0 0.08 1.52 1.35 94 1011.7
20260501215537 58 38 5.0 17.0 0.11 1.52 1.35 94 1011.3
20260501215038 58 31 5.0 17.0 0.13 1.52 1.35 94 1010.6
20260501214600 58 45 6.0 15.0 0.14 1.52 1.35 94 1010.8
20260501214037 59 82 5.0 13.0 0.16 1.52 1.35 94 1011.0
20260501213537 59 15 4.0 15.0 0.18 1.52 1.35 94 1011.3
20260501213056 59 0 4.0 15.0 0.21 1.52 1.35 94 1011.2
20260501212537 59 30 4.0 14.0 0.23 1.52 1.35 94 1011.0
20260501212037 58 71 6.0 14.0 0.23 1.51 1.34 94 1010.3
20260501211554 58 16 5.0 14.0 0.22 1.50 1.33 94 1011.2
20260501211037 58 0 0.0 12.0 0.21 1.48 1.31 94 1012.1
20260501210537 58 34 0.0 15.0 0.19 1.46 1.29 94 1012.1
20260501210048 58 352 3.0 15.0 0.16 1.43 1.26 94 1011.8
20260501205538 58 20 7.0 15.0 0.15 1.47 1.24 94 1011.5
20260501205038 58 28 4.0 13.0 0.14 1.45 1.22 94 1012.0
20260501204552 58 0 0.0 13.0 0.13 1.43 1.20 94 1012.2
20260501204037 58 47 2.0 14.0 0.12 1.42 1.19 94 1011.8
20260501203537 58 46 6.0 14.0 0.09 1.39 1.16 94 1011.6
20260501203051 58 29 2.0 18.0 0.08 1.37 1.14 94 1011.8
20260501202537 58 28 3.0 18.0 0.07 1.35 1.12 94 1011.9
20260501202038 58 0 4.0 13.0 0.07 1.34 1.11 94 1011.7
20260501201550 58 352 4.0 16.0 0.08 1.34 1.11 94 1011.1
20260501201038 58 0 4.0 16.0 0.08 1.33 1.10 94 1011.5
20260501200537 58 21 3.0 16.0 0.10 1.33 1.10 94 1011.6
20260501200053 58 5 2.0 16.0 0.12 1.33 1.10 94 1011.8
20260501195537 58 39 7.0 16.0 0.11 1.32 1.09 94 1011.0
20260501195037 58 23 4.0 15.0 0.11 1.31 1.08 94 1012.0
20260501194555 59 15 4.0 15.0 0.10 1.30 1.07 94 1012.3
20260501194036 59 20 1.0 13.0 0.10 1.30 1.07 94 1012.2
20260501193540 59 28 3.0 12.0 0.09 1.29 1.05 94 1012.2
20260501193046 59 0 1.0 12.0 0.09 1.29 1.05 94 1012.0
20260501192536 59 0 2.0 12.0 0.08 1.28 1.04 94 1011.8
20260501192037 59 0 2.0 14.0 0.07 1.27 1.04 94 1012.3
20260501191546 59 40 0.0 14.0 0.06 1.26 1.03 94 1012.0